This demonstration page uses our WeatherBlox Daily Observations layout. Learn more.

Left ArrowRight Arrow

Hourly Observations for February 20, 2020

Temp ( °F °C ) Dew Point ( °F °C ) Humidity (%) Winds ( mph kmh ) Pressure ( in mb ) Visibility ( mi km ) Precip ( " mm )
12:15 am 00:15 Clear 32 0 27 -3 80 80 WNW 3 6 30.46 1032 10 16.0934 0 0
12:35 am 00:35 Clear 32 0 23 -5 69 69 WNW 5 7 30.46 1032 10 16.0934 0 0
12:55 am 00:55 Clear 32 0 23 -5 69 69 NW 5 7 30.45 1031 10 16.0934 0 0
1:15 am 01:15 Clear 36 2 21 -6 56 56 NNW 7 11 30.45 1031 10 16.0934 0 0
1:35 am 01:35 Clear 34 1 23 -5 65 65 NNW 10 17 30.46 1032 10 16.0934 0 0
1:55 am 01:55 Clear 36 2 23 -5 60 60 NNW 9 15 30.46 1031 10 16.0934 0 0
2:15 am 02:15 Clear 34 1 23 -5 65 65 NNW 9 15 30.45 1031 10 16.0934 0 0
2:35 am 02:35 Clear 32 0 23 -5 69 69 Calm 30.45 1031 10 16.0934 0 0
2:55 am 02:55 Clear 34 1 23 -5 65 65 Calm 30.46 1032 10 16.0934 0 0
3:15 am 03:15 Clear 34 1 21 -6 60 60 Calm 30.46 1032 10 16.0934 0 0
3:35 am 03:35 Clear 32 0 23 -5 69 69 Calm 30.46 1032 10 16.0934 0 0
3:55 am 03:55 Clear 32 0 23 -5 69 69 Calm 30.46 1032 10 16.0934 0 0
4:15 am 04:15 Clear 34 1 21 -6 60 60 N 6 9 30.47 1032 10 16.0934 0 0
4:35 am 04:35 Clear 34 1 21 -6 60 60 N 7 11 30.46 1032 10 16.0934 0 0
4:55 am 04:55 Clear 34 1 21 -6 60 60 N 8 13 30.46 1032 10 16.0934 0 0
5:15 am 05:15 Clear 34 1 21 -6 60 60 N 6 9 30.46 1032 10 16.0934 0 0
5:35 am 05:35 Clear 34 1 21 -6 60 60 N 3 6 30.47 1032 10 16.0934 0 0
5:55 am 05:55 Clear 32 0 21 -6 64 64 N 7 11 30.47 1032 10 16.0934 0 0
6:15 am 06:15 Clear 34 1 19 -7 56 56 N 6 9 30.48 1032 10 16.0934 0 0
6:35 am 06:35 Clear 34 1 19 -7 56 56 NNE 5 7 30.47 1032 10 16.0934 0 0
6:55 am 06:55 Clear 32 0 19 -7 60 60 NNE 6 9 30.48 1032 10 16.0934 0 0
7:15 am 07:15 Sunny 34 1 19 -7 56 56 N 3 6 30.49 1033 10 16.0934 0 0
7:35 am 07:35 Sunny 34 1 19 -7 56 56 N 6 9 30.5 1033 10 16.0934 0 0
7:55 am 07:55 Sunny 34 1 19 -7 56 56 N 7 11 30.51 1033 10 16.0934 0 0
8:15 am 08:15 Sunny 34 1 18 -8 51 51 NNE 5 7 30.51 1033 10 16.0934 0 0
8:35 am 08:35 Sunny 34 1 18 -8 51 51 NNE 6 9 30.51 1033 10 16.0934 0 0
8:55 am 08:55 Partly Cloudy 34 1 18 -8 51 51 N 6 9 30.52 1034 10 16.0934 0 0
9:15 am 09:15 Partly Cloudy 34 1 16 -9 48 48 N 3 6 30.52 1034 10 16.0934 0 0
9:35 am 09:35 Partly Cloudy 34 1 16 -9 48 48 N 9 15 30.51 1033 10 16.0934 0 0
9:55 am 09:55 Mostly Cloudy 34 1 14 -10 44 44 NNE 6 9 30.51 1033 10 16.0934 0 0
10:15 am 10:15 Mostly Cloudy 34 1 14 -10 44 44 NE 7 11 30.51 1033 10 16.0934 0 0
10:35 am 10:35 Partly Cloudy 36 2 16 -9 44 44 NE 3 6 30.51 1033 10 16.0934 0 0
10:55 am 10:55 Mostly Cloudy 36 2 18 -8 48 48 NE 5 7 30.51 1033 10 16.0934 0 0
11:15 am 11:15 Mostly Cloudy 36 2 18 -8 48 48 Calm 30.51 1033 10 16.0934 0 0
11:35 am 11:35 Partly Cloudy 36 2 16 -9 44 44 Calm 30.5 1033 10 16.0934 0 0
11:55 am 11:55 Partly Cloudy 36 2 18 -8 48 48 ENE 3 6 30.5 1033 10 16.0934 0 0
12:15 pm 12:15 Partly Cloudy 36 2 18 -8 48 48 NE 5 7 30.49 1032 10 16.0934 0 0
12:35 pm 12:35 Partly Cloudy 36 2 18 -8 48 48 Calm 30.48 1032 10 16.0934 0 0
12:55 pm 12:55 Partly Cloudy 36 2 18 -8 48 48 NNE 3 6 30.47 1032 10 16.0934 0 0
1:15 pm 13:15 Partly Cloudy 36 2 18 -8 48 48 NNE 6 9 30.47 1032 10 16.0934 0 0
1:35 pm 13:35 Partly Cloudy 36 2 18 -8 48 48 NNW 7 11 30.46 1031 10 16.0934 0 0
1:55 pm 13:55 Partly Cloudy 36 2 18 -8 48 48 NE 3 6 30.45 1031 10 16.0934 0 0
2:15 pm 14:15 Partly Cloudy 36 2 18 -8 48 48 Calm 30.45 1031 10 16.0934 0 0
2:35 pm 14:35 Sunny 37 3 18 -8 45 45 NE 3 6 30.44 1031 10 16.0934 0 0
2:55 pm 14:55 Sunny 36 2 18 -8 48 48 Calm 30.43 1030 10 16.0934 0 0
3:15 pm 15:15 Sunny 37 3 18 -8 45 45 N 3 6 30.43 1030 10 16.0934 0 0
3:35 pm 15:35 Partly Cloudy 36 2 18 -8 48 48 Calm 30.42 1030 10 16.0934 0 0
3:55 pm 15:55 Partly Cloudy 37 3 18 -8 45 45 N 6 9 30.41 1030 10 16.0934 0 0
4:15 pm 16:15 Mostly Cloudy 37 3 18 -8 45 45 N 3 6 30.42 1030 10 16.0934 0 0
4:35 pm 16:35 Cloudy 36 2 18 -8 48 48 NE 5 7 30.41 1030 10 16.0934 0 0
4:55 pm 16:55 Mostly Cloudy 36 2 18 -8 48 48 ENE 3 6 30.42 1030 10 16.0934 0 0
5:15 pm 17:15 Mostly Cloudy 36 2 18 -8 48 48 ENE 5 7 30.42 1030 10 16.0934 0 0
5:35 pm 17:35 Partly Cloudy 36 2 18 -8 48 48 ENE 5 7 30.42 1030 10 16.0934 0 0
5:55 pm 17:55 Clear 36 2 18 -8 48 48 NE 3 6 30.42 1030 10 16.0934 0 0
6:15 pm 18:15 Clear 36 2 18 -8 48 48 Calm 30.42 1030 10 16.0934 0 0
6:35 pm 18:35 Mostly Cloudy 36 2 18 -8 48 48 Calm 30.43 1030 10 16.0934 0 0
6:55 pm 18:55 Cloudy 36 2 18 -8 48 48 Calm 30.43 1030 10 16.0934 0 0
7:15 pm 19:15 Cloudy 36 2 19 -7 52 52 Calm 30.43 1030 10 16.0934 0 0
7:35 pm 19:35 Cloudy 36 2 19 -7 52 52 N 3 6 30.44 1031 10 16.0934 0 0
7:55 pm 19:55 Cloudy 36 2 19 -7 52 52 NNE 7 11 30.44 1031 10 16.0934 0 0
8:15 pm 20:15 Cloudy 36 2 19 -7 52 52 N 13 20 30.45 1031 10 16.0934 0 0
8:55 pm 20:55 Cloudy 34 1 21 -6 60 60 NNE 14 22 30.46 1032 10 16.0934 0 0
9:15 pm 21:15 Cloudy 34 1 21 -6 60 60 NNE 14 22 30.47 1032 10 16.0934 0 0
9:35 pm 21:35 Cloudy 32 0 21 -6 64 64 N 14 22 30.48 1032 10 16.0934 0 0
9:55 pm 21:55 Cloudy 32 0 19 -7 60 60 NNE 9 15 30.48 1032 10 16.0934 0 0
10:15 pm 22:15 Cloudy 32 0 19 -7 60 60 N 7 11 30.48 1032 10 16.0934 0 0
10:35 pm 22:35 Cloudy 32 0 18 -8 55 55 N 12 19 30.48 1032 10 16.0934 0 0
11:15 pm 23:15 Partly Cloudy 32 0 19 -7 60 60 N 7 11 30.48 1032 10 16.0934 0 0
11:35 pm 23:35 Partly Cloudy 30 -1 18 -8 59 59 N 10 17 30.48 1032 10 16.0934 0 0
11:55 pm 23:55 Mostly Cloudy 30 -1 18 -8 59 59 N 9 15 30.49 1033 10 16.0934 0 0

Powered by AerisWeather